星链-3225 (STARLINK-3225 )

导读

STARLINK-3225是美国SpaceX公司于2021年12月2日发射的星链低轨互联网卫星,隶属于星链全球宽带通信星座。该卫星运行在近地轨道,采用平板设计与氪工质霍尔推进,支持自主离轨,依托Ku/Ka波段通信技术,可为偏远地区提供高速低延迟互联网接入,助力星链星座的全球覆盖组网,设计服役寿命约5-7年,退役后会再入大气层烧毁。

Basic Information
目录编号:
49737
目录名称:
STARLINK-3225
国际标识:
2021-115P
轨道中心:
EARTH
卫星名称:
星链-3225
卫星全名:
星链-3225 (STARLINK-3225 )
卫星状态:
在轨 (已飞行1744 天)
发射日期:
2021-12-02 UTC
国别 :
美国 (US)
星等 :
--
This satellite is enrolled in the Space Conjunction Data Service (SCDS) and the current flight risk assessment level is: No High Risk
Orbit Information
数据来源 国际轨道数据
星历时间: 2026-09-11T14:00:02+0800
9小时前
查看轨道信息
半长轴: 6856.657km
偏心率: 0.0001464
轨道倾角: 53.161°
近地点辐角 90.762°
升交点赤经 32.249°
平近点角 5.757°
近地点: 477.516km
远地点: 479.524km
周期: 94.173分钟
每日圈数: 15.29094
Detailed Information
固有亮度:
5
最大亮度:
2.5
卫星平台:
Starlink v1.5
覆盖范围:
全球
运营商:
太空探索技术公司
运营商所在国:
美国
制造商(研发单位):
太空探索技术公司
制造商所在国:
美国
使用方式:
暂无
Satellite Introduction
星链(Starlink)计划是由太空探索技术公司(SpaceX)提出的一个巨型低轨卫星互联网星座项目,计划在2019年至2024年间在太空搭建由约1.2万颗卫星组成的“星链”网络,其中1584颗将部署在地球上空550千米处的近地轨道,并从2020年开始工作。该卫星仍在工作。
2D Orbit Map
3D Orbit Map
Orbit Altitude Analysis Chart
Orbit Inclination Analysis Chart
Orbit Comprehensive Analysis Chart
View Comprehensive Chart
Conjunction Data List
Event ID Objects TCA Miss Dist (km) Collision Risk Probability Collision Risk Index (CRI) Action
CDM_260911-094304-973705-670621
2026-09-11T
09:43:53+0000
1.067 km
极远距离
1.316352E-5 中风险 0.57
CDM_260912-200804-973706-733821
2026-09-12T
20:08:18+0000
1.747 km
极远距离
3.317356E-6 低风险 0.45
CDM_260911-094104-973705-936522
2026-09-11T
09:41:59+0000
2.138 km
极远距离
1.757014E-6 低风险 0.4
CDM_260911-210204-973705-808421
2026-09-11T
21:02:18+0000
2.129 km
极远距离
1.603664E-6 低风险 0.39
CDM_260913-180904-973705-935721
2026-09-13T
18:09:28+0000
2.324 km
极远距离
1.513619E-6 低风险 0.39
CDM_260913-200804-973705-917321
2026-09-13T
20:08:02+0000
2.654 km
极远距离
1.187566E-6 低风险 0.36
CDM_260912-103404-973706-389421
2026-09-12T
10:34:58+0000
2.930 km
极远距离
1.184257E-6 低风险 0.36
CDM_260911-173504-973706-647722
2026-09-11T
17:35:24+0000
2.349 km
极远距离
1.177002E-6 低风险 0.36
CDM_260913-081504-780504-973721
2026-09-13T
08:15:44+0000
2.510 km
极远距离
1.121676E-6 低风险 0.36
CDM_260911-190804-973705-797622
2026-09-11T
19:08:43+0000
1.974 km
极远距离
1.08222E-6 低风险 0.36
Miss Distance Evolution Trend with All Objects
Collision Probability Evolution Trend with All Objects